Flag for Germany Weather past 2 weeks in Falkensee, Brandenburg, Germany

Now
88 °F

Thundershowers. Broken clouds.


Feels Like: 87 °F
Forecast: 78 / 97 °F
Wind: No wind

Location: Berlin-Tegel

Current Time: Jul 4, 2015 at 9:46:25 PM

Latest Report: Jul 4, 2015 at 9:20 PM


Visibility: N/A

Pressure: 30.04 "Hg

Humidity: 38%

Dew point: 59 °F

Location of FalkenseeLocation

Historic Weather in Falkensee — Graph

°F

Falkensee temperature yesterday

Maximum temperature yesterday: 93 °F (at 3:50 PM)
Minimum temperature yesterday: 68 °F (at 4:20 AM)
Average temperature yesterday: 81 °F

Past Weeks' High & Low Weather Summary

 TemperatureHumidityPressure
High99 °F (Jul 4, 3:50 PM)100% (Jun 23, 10:50 AM)30.27 "Hg (Jun 23, 10:50 AM)
Low48 °F (Jun 24, 4:50 AM)22% (Jul 4, 4:50 PM)29.59 "Hg (Jun 23, 1:20 AM)
Average66 °F64%30.06 "Hg
* Reported Jun 19 8:20 PM — Jul 4 8:20 PM, Falkensee, Weather by CustomWeather, © 2015

Note: Actual official high and low records may vary slightly from our data, if they occured in-between our weather recording intervals... More about our weather records

Advertising

Falkensee weather history for previous 24 hours

 ConditionsComfort  
Time TempWeatherWind HumidityBarometerVisibility
8:20 PM
Sat, Jul 4
93 °FBroken clouds.5 mph30%30.04 "HgN/A
7:50 PM93 °FBroken clouds.6 mph28%30.04 "HgN/A
7:20 PM95 °FSunny.7 mph26%30.04 "Hg10 mi
6:50 PM97 °FPassing clouds.7 mph25%30.04 "HgN/A
6:20 PM99 °FPassing clouds.6 mph22%30.04 "HgN/A
5:50 PM99 °FPassing clouds.6 mph24%30.04 "HgN/A
5:20 PM99 °FPassing clouds.5 mph22%30.04 "HgN/A
4:50 PM99 °FSunny.8 mph22%30.07 "Hg10 mi
4:20 PM99 °FPassing clouds.7 mph24%30.07 "HgN/A
3:50 PM99 °FPassing clouds.7 mph24%30.07 "HgN/A
3:20 PM97 °FPassing clouds.7 mph25%30.07 "HgN/A
2:50 PM97 °FSunny.6 mph27%30.09 "Hg10 mi
2:20 PM95 °FPassing clouds.7 mph26%30.09 "HgN/A
1:50 PM97 °FPassing clouds.8 mph27%30.09 "HgN/A
1:20 PM95 °FPassing clouds.8 mph28%30.09 "HgN/A
12:50 PM95 °FPassing clouds.6 mph28%30.12 "HgN/A
12:20 PM93 °FPassing clouds.7 mph32%30.12 "HgN/A
11:50 AM91 °FPassing clouds.7 mph32%30.12 "HgN/A
11:20 AM91 °FPassing clouds.7 mph34%30.12 "HgN/A
10:50 AM88 °FPassing clouds.7 mph35%30.15 "HgN/A
10:20 AM88 °FPassing clouds.7 mph38%30.15 "HgN/A
9:50 AM86 °FPassing clouds.6 mph40%30.15 "HgN/A
9:20 AM82 °FPassing clouds.5 mph42%30.15 "HgN/A
8:50 AM81 °FPassing clouds.6 mph45%30.15 "HgN/A
8:20 AM79 °FPassing clouds.5 mph48%30.15 "HgN/A
7:50 AM77 °FPassing clouds.5 mph47%30.15 "HgN/A
7:20 AM75 °FPassing clouds.5 mph47%30.15 "HgN/A
6:50 AM75 °FSunny.5 mph47%30.15 "Hg10 mi
6:20 AM73 °FSunny.5 mph50%30.15 "Hg10 mi
5:50 AM73 °FSunny.2 mph47%30.15 "Hg10 mi
5:20 AM72 °FClear.2 mph50%30.15 "Hg10 mi
4:50 AM73 °FPassing clouds.3 mph44%30.15 "HgN/A
4:20 AM73 °FClear.2 mph44%30.18 "Hg10 mi
3:50 AM75 °FPassing clouds.5 mph41%30.18 "HgN/A
3:20 AM73 °FClear.5 mph44%30.18 "Hg10 mi
2:50 AM73 °FClear.7 mph44%30.18 "Hg10 mi
2:20 AM75 °FClear.7 mph41%30.18 "Hg10 mi
1:50 AM77 °FClear.6 mph36%30.21 "Hg10 mi
1:20 AM79 °FClear.9 mph32%30.21 "Hg10 mi
12:50 AM79 °FClear.8 mph32%30.21 "Hg10 mi
12:20 AM79 °FClear.7 mph34%30.21 "Hg10 mi
11:50 PM
Fri, Jul 3
79 °FClear.7 mph34%30.21 "Hg10 mi
11:20 PM81 °FPleasantly warm.6 mph32%30.21 "HgN/A
10:50 PM81 °FClear.7 mph34%30.21 "Hg10 mi
10:20 PM81 °FSunny.7 mph34%30.21 "Hg10 mi
9:50 PM84 °FPassing clouds.6 mph31%30.21 "HgN/A
9:20 PM84 °FSunny.6 mph33%30.21 "Hg10 mi
Weather by CustomWeather, © 2015

See weather overviewHow to use our weather pages